Terminal Aerodrome Forecast
Issued by NWS

Home | Current Version | Previous Version | Text Only | Print | Product List | Glossary On
Versions: 1 2 3 4 5 6 7 8 9 10 11 12 13 14 15
000
FTUS45 KRIW 300500
TAFJAC
TAF
KJAC 300534Z 3006/0106 VRB05KT P6SM FEW005 OVC030
     FM301000 VRB05KT P6SM VCSH FEW005 OVC025
     FM301500 VRB05KT 6SM -SHRA BR SCT012 OVC025
     FM301900 20012G18KT P6SM -SHRA VCTS BKN030CB BKN050
     FM010100 21005KT P6SM BKN050
      AMD LTD TO CLD VIS AND WIND=

USA.gov is the U.S. government's official web portal to all federal, state and local government web resources and services.